UAL257 KBOS-KEWR

Flight info

Callsign UAL257
Flight time 0h 47m
Altitude 16000
Route PATSS7 PATSS NELIE FLOSI4
Aircraft B739/M-SDE2E3FGHIRWXY/LB1

Departure

Time 2026-05-06 15:55
Airport Boston Logan International Airport (KBOS)

Arrival

Time 2026-05-06 16:42
Airport Newark Liberty International Airport (KEWR)
Time Latitude Longitude Altitude Speed Heading
2026-05-06 15:41 42.36048 -71.01709 26 ft 0 kts 288°
2026-05-06 15:46 42.36048 -71.01708 26 ft 2 kts 288°
2026-05-06 15:46 42.36042 -71.01685 32 ft 3 kts 288°
2026-05-06 15:46 42.36036 -71.01662 27 ft 3 kts 288°
2026-05-06 15:46 42.36031 -71.01640 27 ft 2 kts 288°
2026-05-06 15:47 42.36026 -71.01617 27 ft 3 kts 288°
2026-05-06 15:47 42.36023 -71.01606 27 ft 0 kts 288°
2026-05-06 15:48 42.36029 -71.01615 27 ft 2 kts 321°
2026-05-06 15:49 42.36047 -71.01604 27 ft 6 kts 36°
2026-05-06 15:49 42.36096 -71.01551 27 ft 12 kts 35°
2026-05-06 15:49 42.36149 -71.01518 27 ft 7 kts 25°
2026-05-06 15:49 42.36185 -71.01442 27 ft 13 kts 69°
2026-05-06 15:50 42.36278 -71.01359 25 ft 20 kts 20°
2026-05-06 15:50 42.36424 -71.01289 25 ft 23 kts 19°
2026-05-06 15:50 42.36576 -71.01217 26 ft 23 kts 19°
2026-05-06 15:50 42.36722 -71.01147 27 ft 22 kts 14°
2026-05-06 15:51 42.36837 -71.01219 25 ft 8 kts 327°
2026-05-06 15:51 42.36889 -71.01216 23 ft 8 kts 26°
2026-05-06 15:51 42.36934 -71.01171 24 ft 8 kts 39°
2026-05-06 15:51 42.36990 -71.01113 25 ft 13 kts 35°
2026-05-06 15:52 42.37088 -71.01044 21 ft 19 kts 26°
2026-05-06 15:52 42.37220 -71.00957 22 ft 23 kts 25°
2026-05-06 15:52 42.37381 -71.00861 21 ft 27 kts 17°
2026-05-06 15:52 42.37567 -71.00779 25 ft 28 kts 19°
2026-05-06 15:53 42.37734 -71.00699 28 ft 23 kts 22°
2026-05-06 15:53 42.37773 -71.00621 28 ft 0 kts 90°
2026-05-06 15:53 42.37770 -71.00609 28 ft 3 kts 110°
2026-05-06 15:53 42.37753 -71.00559 26 ft 8 kts 120°
2026-05-06 15:54 42.37699 -71.00521 27 ft 8 kts 191°
2026-05-06 15:54 42.37689 -71.00525 29 ft 2 kts 198°
2026-05-06 15:54 42.37440 -71.00638 24 ft 83 kts 199°
2026-05-06 15:54 42.36644 -71.01017 61 ft 152 kts 199°
2026-05-06 15:55 42.35591 -71.01569 828 ft 167 kts 201°
2026-05-06 15:55 42.34599 -71.02040 1703 ft 144 kts 186°
2026-05-06 15:55 42.33614 -71.01477 2206 ft 183 kts 142°
2026-05-06 15:55 42.32777 -70.99965 2550 ft 213 kts 137°
2026-05-06 15:56 42.31874 -70.98301 3110 ft 225 kts 136°
2026-05-06 15:56 42.31330 -70.96195 3786 ft 253 kts 106°
2026-05-06 15:56 42.31325 -70.93655 4125 ft 292 kts 88°
2026-05-06 15:56 42.31765 -70.90882 4820 ft 306 kts 84°
2026-05-06 15:57 42.32213 -70.88060 5722 ft 308 kts 85°
2026-05-06 15:57 42.32628 -70.85269 6667 ft 308 kts 86°
2026-05-06 15:57 42.33033 -70.82387 7403 ft 316 kts 89°
2026-05-06 15:57 42.32945 -70.79508 8214 ft 299 kts 116°
2026-05-06 15:58 42.32181 -70.76962 9102 ft 290 kts 129°
2026-05-06 15:58 42.31209 -70.74558 9915 ft 291 kts 134°
2026-05-06 15:58 42.29880 -70.72625 10504 ft 276 kts 160°
2026-05-06 15:58 42.28124 -70.71743 11120 ft 267 kts 179°
2026-05-06 15:59 42.26294 -70.71718 11835 ft 262 kts 194°
2026-05-06 15:59 42.24482 -70.72129 12591 ft 266 kts 195°
2026-05-06 15:59 42.22635 -70.72575 13314 ft 273 kts 196°
2026-05-06 15:59 42.20860 -70.73425 13993 ft 271 kts 215°
2026-05-06 16:00 42.19464 -70.75076 14674 ft 274 kts 228°
2026-05-06 16:00 42.18366 -70.77293 14868 ft 300 kts 244°
2026-05-06 16:00 42.17798 -70.80087 15033 ft 324 kts 255°
2026-05-06 16:00 42.17390 -70.83182 15179 ft 345 kts 256°
2026-05-06 16:01 42.16980 -70.86449 15297 ft 363 kts 256°
2026-05-06 16:01 42.16534 -70.89868 15576 ft 374 kts 256°
2026-05-06 16:01 42.16070 -70.93328 16071 ft 377 kts 256°
2026-05-06 16:01 42.15652 -70.96847 16596 ft 382 kts 258°
2026-05-06 16:02 42.15321 -71.00414 17085 ft 386 kts 259°
2026-05-06 16:02 42.15018 -71.04024 17559 ft 390 kts 259°
2026-05-06 16:02 42.14715 -71.07672 18048 ft 393 kts 259°
2026-05-06 16:02 42.14404 -71.11341 18465 ft 396 kts 259°
2026-05-06 16:03 42.14083 -71.15047 18895 ft 398 kts 259°
2026-05-06 16:03 42.13754 -71.18763 19315 ft 401 kts 259°
2026-05-06 16:03 42.13418 -71.22498 19730 ft 403 kts 259°
2026-05-06 16:03 42.13076 -71.26263 20143 ft 405 kts 260°
2026-05-06 16:04 42.12731 -71.30047 20552 ft 407 kts 260°
2026-05-06 16:04 42.12387 -71.33795 20948 ft 410 kts 260°
2026-05-06 16:04 42.12035 -71.37617 21330 ft 412 kts 260°
2026-05-06 16:04 42.11680 -71.41460 21706 ft 415 kts 260°
2026-05-06 16:05 42.11323 -71.45312 22081 ft 417 kts 260°
2026-05-06 16:05 42.10961 -71.49198 22444 ft 418 kts 261°
2026-05-06 16:05 42.10598 -71.53092 22857 ft 419 kts 261°
2026-05-06 16:05 42.10233 -71.56985 23259 ft 420 kts 262°
2026-05-06 16:06 42.09868 -71.60875 23732 ft 418 kts 262°
2026-05-06 16:06 42.09501 -71.64769 24000 ft 420 kts 262°
2026-05-06 16:06 42.09128 -71.68695 24219 ft 424 kts 262°
2026-05-06 16:06 42.08727 -71.72636 24473 ft 425 kts 260°
2026-05-06 16:07 42.08200 -71.76562 24759 ft 426 kts 258°
2026-05-06 16:07 42.07611 -71.80475 25056 ft 428 kts 258°
2026-05-06 16:07 42.07000 -71.84405 25324 ft 430 kts 257°
2026-05-06 16:07 42.06386 -71.88354 25595 ft 431 kts 258°
2026-05-06 16:08 42.05787 -71.92252 25979 ft 431 kts 258°
2026-05-06 16:08 42.05190 -71.96188 26489 ft 427 kts 258°
2026-05-06 16:08 42.04603 -72.00086 26987 ft 424 kts 258°
2026-05-06 16:08 42.04020 -72.03974 27432 ft 423 kts 258°
2026-05-06 16:09 42.03439 -72.07847 27897 ft 422 kts 258°
2026-05-06 16:09 42.02860 -72.11705 28401 ft 420 kts 258°
2026-05-06 16:09 42.02282 -72.15543 28932 ft 417 kts 258°
2026-05-06 16:09 42.01706 -72.19357 29556 ft 413 kts 258°
2026-05-06 16:10 42.01133 -72.23144 29866 ft 413 kts 258°
2026-05-06 16:10 42.00566 -72.26878 29888 ft 412 kts 258°
2026-05-06 16:10 41.99420 -72.34404 29877 ft 410 kts 258°
2026-05-06 16:11 41.98273 -72.41898 29881 ft 409 kts 258°
2026-05-06 16:11 41.97121 -72.49396 29852 ft 410 kts 258°
2026-05-06 16:12 41.95966 -72.56878 29882 ft 408 kts 258°
2026-05-06 16:12 41.94810 -72.64338 29869 ft 408 kts 257°
2026-05-06 16:13 41.93490 -72.71722 29869 ft 407 kts 253°
2026-05-06 16:13 41.91777 -72.78969 29833 ft 407 kts 252°
2026-05-06 16:14 41.90073 -72.86139 29851 ft 404 kts 252°
2026-05-06 16:14 41.88370 -72.93342 29867 ft 403 kts 252°
2026-05-06 16:15 41.86676 -73.00510 29891 ft 402 kts 252°
2026-05-06 16:15 41.84992 -73.07627 29879 ft 403 kts 252°
2026-05-06 16:16 41.83290 -73.14796 29875 ft 404 kts 252°
2026-05-06 16:16 41.81577 -73.21992 29884 ft 404 kts 252°
2026-05-06 16:17 41.79858 -73.29185 29862 ft 406 kts 251°
2026-05-06 16:17 41.78128 -73.36404 29874 ft 407 kts 251°
2026-05-06 16:18 41.76386 -73.43652 29852 ft 410 kts 251°
2026-05-06 16:18 41.74631 -73.50927 29861 ft 411 kts 251°
2026-05-06 16:19 41.72878 -73.58175 29849 ft 412 kts 251°
2026-05-06 16:19 41.71108 -73.65466 29852 ft 413 kts 251°
2026-05-06 16:20 41.69326 -73.72788 29856 ft 414 kts 251°
2026-05-06 16:20 41.67536 -73.80116 29854 ft 414 kts 251°
2026-05-06 16:21 41.65741 -73.87444 29848 ft 414 kts 251°
2026-05-06 16:21 41.63944 -73.94753 29854 ft 413 kts 251°
2026-05-06 16:22 41.62146 -74.02048 29864 ft 413 kts 251°
2026-05-06 16:22 41.60343 -74.09340 29832 ft 414 kts 251°
2026-05-06 16:23 41.58528 -74.16659 29828 ft 415 kts 251°
2026-05-06 16:23 41.56706 -74.23985 29733 ft 417 kts 251°
2026-05-06 16:24 41.55706 -74.27629 28698 ft 426 kts 243°
2026-05-06 16:24 41.54030 -74.30853 28009 ft 420 kts 229°
2026-05-06 16:24 41.51902 -74.33507 26853 ft 425 kts 221°
2026-05-06 16:24 41.49370 -74.35597 25814 ft 432 kts 209°
2026-05-06 16:25 41.46506 -74.36930 24993 ft 437 kts 202°
2026-05-06 16:25 41.43602 -74.38091 24142 ft 433 kts 202°
2026-05-06 16:25 41.40740 -74.39275 23361 ft 427 kts 203°
2026-05-06 16:25 41.37920 -74.40479 22424 ft 423 kts 203°
2026-05-06 16:26 41.35149 -74.41675 21669 ft 415 kts 203°
2026-05-06 16:26 41.32416 -74.42855 20887 ft 409 kts 204°
2026-05-06 16:26 41.29721 -74.44013 20118 ft 404 kts 204°
2026-05-06 16:26 41.27056 -74.45156 19395 ft 399 kts 204°
2026-05-06 16:27 41.24428 -74.46280 18659 ft 394 kts 204°
2026-05-06 16:27 41.21860 -74.47378 17922 ft 390 kts 204°
2026-05-06 16:27 41.19289 -74.48477 17130 ft 386 kts 203°
2026-05-06 16:27 41.16753 -74.49561 16460 ft 378 kts 203°
2026-05-06 16:28 41.14264 -74.50625 15712 ft 373 kts 203°
2026-05-06 16:28 41.11810 -74.51673 15039 ft 367 kts 202°
2026-05-06 16:28 41.09395 -74.52698 14366 ft 362 kts 202°
2026-05-06 16:28 41.07013 -74.53698 13807 ft 355 kts 200°
2026-05-06 16:29 41.04594 -74.54216 13494 ft 348 kts 189°
2026-05-06 16:29 41.02187 -74.54391 12823 ft 344 kts 188°
2026-05-06 16:29 40.99819 -74.54546 12199 ft 338 kts 189°
2026-05-06 16:29 40.97489 -74.54725 11579 ft 334 kts 189°
2026-05-06 16:30 40.95173 -74.54913 11019 ft 331 kts 189°
2026-05-06 16:30 40.94435 -74.54974 11005 ft 324 kts 189°
2026-05-06 16:30 40.90817 -74.55230 10782 ft 298 kts 190°
2026-05-06 16:30 40.89476 -74.55371 10704 ft 288 kts 191°
2026-05-06 16:31 40.86877 -74.55646 10550 ft 271 kts 191°
2026-05-06 16:31 40.85654 -74.55767 10487 ft 262 kts 190°
2026-05-06 16:31 40.83309 -74.55949 10360 ft 245 kts 192°
2026-05-06 16:31 40.81629 -74.56044 10270 ft 241 kts 186°
2026-05-06 16:32 40.80496 -74.55985 10215 ft 240 kts 185°
2026-05-06 16:32 40.78831 -74.55868 10123 ft 239 kts 186°
2026-05-06 16:32 40.77209 -74.55899 9935 ft 229 kts 188°
2026-05-06 16:32 40.75607 -74.55721 9669 ft 229 kts 181°
2026-05-06 16:33 40.74046 -74.55585 9342 ft 224 kts 187°
2026-05-06 16:33 40.72489 -74.55491 9012 ft 225 kts 185°
2026-05-06 16:33 40.70948 -74.55390 8697 ft 224 kts 185°
2026-05-06 16:34 40.67851 -74.55212 8094 ft 223 kts 185°
2026-05-06 16:34 40.66296 -74.55128 7783 ft 223 kts 185°
2026-05-06 16:34 40.64750 -74.54921 7505 ft 230 kts 172°
2026-05-06 16:34 40.63279 -74.53943 7265 ft 243 kts 154°
2026-05-06 16:35 40.62147 -74.52215 7110 ft 253 kts 132°
2026-05-06 16:35 40.61406 -74.50152 7000 ft 253 kts 116°
2026-05-06 16:35 40.61317 -74.47082 6864 ft 254 kts 92°
2026-05-06 16:35 40.61469 -74.45544 6801 ft 247 kts 91°
2026-05-06 16:36 40.61703 -74.43342 6559 ft 241 kts 91°
2026-05-06 16:36 40.61935 -74.41154 6290 ft 239 kts 90°
2026-05-06 16:36 40.62162 -74.39032 5993 ft 236 kts 90°
2026-05-06 16:36 40.62388 -74.36872 5631 ft 237 kts 90°
2026-05-06 16:37 40.62610 -74.34736 5268 ft 236 kts 90°
2026-05-06 16:37 40.62833 -74.32575 4873 ft 239 kts 90°
2026-05-06 16:37 40.63055 -74.30413 4547 ft 237 kts 90°
2026-05-06 16:37 40.63274 -74.28287 4230 ft 233 kts 89°
2026-05-06 16:38 40.63490 -74.26192 3966 ft 229 kts 89°
2026-05-06 16:38 40.63700 -74.24146 3690 ft 224 kts 90°
2026-05-06 16:38 40.63905 -74.22141 3520 ft 218 kts 90°
2026-05-06 16:38 40.64106 -74.20160 3409 ft 220 kts 89°
2026-05-06 16:39 40.64307 -74.18166 3306 ft 222 kts 89°
2026-05-06 16:39 40.64509 -74.16162 3221 ft 223 kts 89°
2026-05-06 16:39 40.64713 -74.14138 3066 ft 225 kts 89°
2026-05-06 16:39 40.64918 -74.12095 2810 ft 224 kts 89°
2026-05-06 16:40 40.65272 -74.10109 2501 ft 228 kts 66°
2026-05-06 16:40 40.66391 -74.08675 2164 ft 225 kts 22°
2026-05-06 16:40 40.67829 -74.08416 1999 ft 200 kts 344°
2026-05-06 16:40 40.69006 -74.09116 1484 ft 182 kts 302°
2026-05-06 16:41 40.69424 -74.10578 1005 ft 169 kts 271°
2026-05-06 16:41 40.69664 -74.12060 752 ft 158 kts 278°
2026-05-06 16:41 40.70000 -74.13388 468 ft 151 kts 285°
2026-05-06 16:41 40.70178 -74.14641 264 ft 130 kts 258°
2026-05-06 16:42 40.70140 -74.15831 35 ft 134 kts 268°
2026-05-06 16:42 40.70194 -74.16911 22 ft 90 kts 275°
2026-05-06 16:42 40.70231 -74.17457 22 ft 38 kts 273°
2026-05-06 16:42 40.70219 -74.17714 21 ft 17 kts 249°
2026-05-06 16:43 40.70205 -74.17760 21 ft 0 kts 249°
2026-05-06 16:46 40.70193 -74.17802 21 ft 10 kts 248°
2026-05-06 16:46 40.70164 -74.17848 22 ft 1 kts 186°
2026-05-06 16:46 40.70153 -74.17840 23 ft 3 kts 145°
2026-05-06 16:47 40.70142 -74.17820 21 ft 3 kts 117°
2026-05-06 16:47 40.70138 -74.17793 21 ft 5 kts 97°
2026-05-06 16:47 40.70147 -74.17718 21 ft 10 kts 85°
2026-05-06 16:47 40.70146 -74.17624 21 ft 10 kts 94°
2026-05-06 16:48 40.70141 -74.17533 21 ft 10 kts 95°
2026-05-06 16:48 40.70135 -74.17444 22 ft 10 kts 95°
2026-05-06 16:48 40.70107 -74.17373 21 ft 10 kts 156°
2026-05-06 16:48 40.70041 -74.17367 21 ft 9 kts 181°
2026-05-06 16:49 40.69978 -74.17373 21 ft 9 kts 185°
2026-05-06 16:49 40.69916 -74.17382 21 ft 9 kts 187°
2026-05-06 16:49 40.69868 -74.17396 21 ft 5 kts 202°
2026-05-06 16:49 40.69849 -74.17433 21 ft 5 kts 262°
2026-05-06 16:50 40.69847 -74.17482 21 ft 5 kts 267°
2026-05-06 16:50 40.69845 -74.17530 21 ft 5 kts 265°
2026-05-06 16:50 40.69829 -74.17570 21 ft 5 kts 215°
2026-05-06 16:50 40.69796 -74.17558 21 ft 5 kts 155°
2026-05-06 16:51 40.69789 -74.17553 21 ft 0 kts 153°